0 HST
1 20580U 90037B 25265.24122450 .00009383 00000-0 34185-3 0 9991
2 20580 28.4666 106.5556 0002764 59.7750 300.3118 15.26417055747526
0 ISS (ZARYA)
1 25544U 98067A 25265.15119281 .00019546 00000-0 34339-3 0 9998
2 25544 51.6340 186.4647 0004285 5.9314 354.1726 15.50504496530205
0 CXO
1 25867U 99040B 25267.28517176 .00000866 00000-0 00000-0 0 9999
2 25867 51.4890 125.5368 8267589 310.4653 0.5162 0.37809362 16317